Duluth, MN

12:06 PM CDT on May 26, 2017 (GMT -0500)
Duluth International

Weather History for KDLH - April, 2013

Change the Weather History Date:

Saturday, April 6, 2013

  Actual Average Record
Temperature  
Mean Temperature 32 °F 35 °F  
Max Temperature 35 °F 44 °F 75 °F (1900)
Min Temperature 29 °F 26 °F 2 °F (1979)
Degree Days  
Heating Degree Days 33 30  
Month to date heating degree days 217 186  
Since 1 July heating degree days 8058 8263  
Cooling Degree Days 0 0  
Month to date cooling degree days 0 0  
Year to date cooling degree days 0 0  
Moisture  
Dew Point 29 °F    
Average Humidity 87    
Maximum Humidity 92    
Minimum Humidity 82    
Precipitation  
Precipitation 0.90 in 0.07 in 1.56 in (1882)
Month to date precipitation 0.92 0.38  
Year to date precipitation 5.51 3.64  
Snow  
Snow 4.00 in 0.30 in 5.50 in (1956)
Month to date snowfall 4.5 1.9  
Since 1 July snowfall 83.1 80.7  
Snow Depth 8.00 in    
Sea Level Pressure  
Sea Level Pressure 29.73 in    
Wind  
Wind Speed 11 mph (ENE)    
Max Wind Speed 21 mph    
Max Gust Speed 25 mph    
Visibility 4 miles    
Events Fog , Rain , Snow    
T = Trace of Precipitation, MM = Missing Value Source: NWS Daily Summary

Daily Weather History Graph

Daily Weather History Graph

Search for Another Location

Airport or City:

Trip Planner

Search our weather history database for the weather conditions in past years. The results will help you decide how hot, cold, wet, or windy it might be!

Date:

Astronomy

Apr. 06, 2013 Rise Set
Actual Time 6:37 AM CDT 7:45 PM CDT
Civil Twilight 6:06 AM CDT 8:16 PM CDT
Nautical Twilight 5:29 AM CDT 8:53 PM CDT
Astronomical Twilight 4:49 AM CDT 9:33 PM CDT
Moon 4:35 AM CDT (4/6) 4:02 PM CDT (4/6)
Length of Visible Light 14h 09m
Length of Day
13h 07m
Waning Crescent, 15% of the Moon is Illuminated
Apr 6
Waning Crescent
Apr 10
New
Apr 18
First Quarter
Apr 25
Full
May 2
Last Quarter

Hourly Weather History & Observations

Time (CDT) Temp. Windchill Dew Point Humidity Pressure Visibility Wind Dir Wind Speed Gust Speed Precip Events Conditions
12:04 AM 28.4 °F 19.7 °F 26.6 °F 93% 30.00 in 3.0 mi ESE 9.2 mph - 0.00 in Snow Light Snow
12:25 AM 28.4 °F 19.7 °F 26.6 °F 93% 29.99 in 3.0 mi ESE 9.2 mph - 0.00 in Snow Light Snow
12:55 AM 28.9 °F 19.8 °F 26.1 °F 89% 30.03 in 4.0 mi East 10.4 mph - 0.01 in Snow Light Snow
1:10 AM 30.2 °F 20.2 °F 26.6 °F 86% 29.96 in 2.5 mi ESE 12.7 mph - 0.00 in Snow Light Snow
1:27 AM 28.4 °F 17.0 °F 26.6 °F 93% 29.96 in 1.5 mi East 15.0 mph - 0.01 in Snow Light Snow
1:55 AM 28.9 °F 17.7 °F 26.1 °F 89% 30.00 in 1.0 mi East 15.0 mph - 0.02 in Snow Light Snow
2:14 AM 28.4 °F 17.5 °F 26.6 °F 93% 29.92 in 3.0 mi East 13.8 mph - 0.00 in Snow Light Snow
2:55 AM 30.0 °F 19.1 °F 27.0 °F 88% 29.95 in 4.0 mi East 15.0 mph - 0.02 in Snow Light Snow
3:10 AM 30.2 °F 18.9 °F 26.6 °F 86% 29.88 in 2.5 mi East 16.1 mph - 0.00 in Snow Light Snow
3:32 AM 30.2 °F 18.5 °F 26.6 °F 86% 29.86 in 4.0 mi East 17.3 mph - 0.01 in Snow Light Snow
3:55 AM 30.0 °F 18.7 °F 27.0 °F 88% 29.92 in 3.0 mi East 16.1 mph - 0.01 in Snow Light Snow
4:40 AM 30.2 °F 17.8 °F 26.6 °F 86% 29.83 in 1.0 mi East 19.6 mph - 0.00 in Snow Light Snow
4:55 AM 30.9 °F 19.4 °F 28.0 °F 89% 29.88 in 1.0 mi ESE 17.3 mph - 0.00 in Snow Light Snow
5:12 AM 30.2 °F 19.3 °F 28.4 °F 93% 29.83 in 0.8 mi ESE 15.0 mph 21.9 mph 0.00 in Snow Light Snow
5:26 AM 30.2 °F 19.3 °F 28.4 °F 93% 29.82 in 2.5 mi ESE 15.0 mph - 0.00 in Snow Light Snow
5:34 AM 30.2 °F 17.8 °F 28.4 °F 93% 29.81 in 5.0 mi East 19.6 mph 25.3 mph 0.00 in Snow Light Snow
5:55 AM 30.9 °F 19.8 °F 28.9 °F 92% 29.86 in 5.0 mi ESE 16.1 mph - 0.00 in Snow Light Snow
6:22 AM 32.0 °F 21.6 °F 28.4 °F 87% 29.79 in 4.0 mi East 15.0 mph - 0.00 in   Light Freezing Drizzle
6:44 AM 32.0 °F 21.6 °F 28.4 °F 87% 29.78 in 6.0 mi ESE 15.0 mph - 0.00 in Snow Light Snow
6:55 AM 32.0 °F 22.1 °F 28.9 °F 88% 29.83 in 6.0 mi ESE 13.8 mph - 0.00 in   Overcast
7:55 AM 32.0 °F 22.5 °F 28.9 °F 88% 29.81 in 4.0 mi East 12.7 mph - N/A   Overcast
8:55 AM 33.1 °F 23.9 °F 30.0 °F 89% 29.78 in 3.0 mi ESE 12.7 mph - 0.00 in Rain Light Rain
9:55 AM 33.1 °F 24.4 °F 30.0 °F 89% 29.75 in 4.0 mi ESE 11.5 mph - 0.01 in Rain Light Rain
10:08 AM 33.8 °F 24.3 °F 30.2 °F 87% 29.68 in 4.0 mi East 13.8 mph - 0.00 in Rain Light Freezing Rain
10:55 AM 33.1 °F 23.4 °F 30.0 °F 89% 29.73 in 4.0 mi East 13.8 mph - 0.04 in Rain Light Freezing Rain
11:55 AM 33.1 °F 23.4 °F 30.0 °F 89% 29.71 in 4.0 mi East 13.8 mph - 0.04 in Rain Light Freezing Rain
12:06 PM 33.8 °F 25.3 °F 30.2 °F 87% 29.64 in 4.0 mi East 11.5 mph - 0.00 in Rain Light Freezing Rain
12:55 PM 33.1 °F 23.0 °F 30.0 °F 89% 29.69 in 4.0 mi East 15.0 mph - 0.04 in Snow Light Snow
1:04 PM 33.8 °F 24.3 °F 30.2 °F 87% 29.62 in 1.8 mi East 13.8 mph - 0.01 in Snow Light Snow
1:21 PM 32.0 °F 24.2 °F 30.2 °F 93% 29.62 in 0.5 mi East 9.2 mph - 0.04 in Fog , Snow Snow
1:55 PM 33.1 °F 24.4 °F 30.0 °F 89% 29.67 in 1.5 mi East 11.5 mph - 0.26 in Rain Rain
1:59 PM 33.8 °F 26.4 °F 30.2 °F 87% 29.61 in 2.0 mi East 9.2 mph - 0.01 in Rain Light Freezing Rain
2:20 PM 33.8 °F 25.3 °F 30.2 °F 87% 29.60 in 3.0 mi East 11.5 mph - 0.09 in Rain Light Freezing Rain
2:25 PM 33.8 °F 25.8 °F 30.2 °F 87% 29.60 in 3.0 mi East 10.4 mph - 0.09 in Rain Light Freezing Rain
2:35 PM 33.8 °F 25.3 °F 30.2 °F 87% 29.59 in 3.0 mi ENE 11.5 mph - 0.11 in Rain , Snow Light Freezing Rain
2:42 PM 33.8 °F 27.7 °F 30.2 °F 87% 29.60 in 3.0 mi East 6.9 mph - 0.13 in Snow Light Ice Pellets
2:52 PM 33.8 °F 27.0 °F 30.2 °F 87% 29.60 in 1.8 mi East 8.1 mph - 0.14 in Snow Light Ice Pellets
2:55 PM 33.1 °F 26.9 °F 30.0 °F 89% 29.66 in 1.5 mi East 6.9 mph - 0.15 in Snow Light Ice Pellets
3:02 PM 33.8 °F 28.6 °F 30.2 °F 87% 29.60 in 1.2 mi East 5.8 mph - 0.01 in Snow Light Ice Pellets
3:11 PM 33.8 °F 27.7 °F 30.2 °F 87% 29.59 in 0.5 mi East 6.9 mph - 0.04 in Snow Light Ice Pellets
3:14 PM 33.8 °F 27.0 °F 30.2 °F 87% 29.59 in 0.2 mi ENE 8.1 mph - 0.05 in Fog , Snow Snow
3:32 PM 33.8 °F 27.7 °F 30.2 °F 87% 29.59 in 0.2 mi ENE 6.9 mph - 0.10 in Fog , Snow Snow
3:55 PM 33.1 °F 26.9 °F 30.0 °F 89% 29.64 in 0.2 mi East 6.9 mph - 0.17 in Fog , Snow Snow
4:31 PM 33.8 °F 29.6 °F 30.2 °F 87% 29.59 in 0.5 mi NE 4.6 mph - 0.06 in Fog , Snow Snow
4:55 PM 33.1 °F 28.7 °F 30.0 °F 89% 29.65 in 0.5 mi NE 4.6 mph - 0.09 in Fog , Snow Snow
5:02 PM 33.8 °F 30.8 °F 30.2 °F 87% 29.60 in 0.5 mi NNE 3.5 mph - 0.00 in Fog , Snow Snow
5:36 PM 33.8 °F 29.6 °F 30.2 °F 87% 29.60 in 1.2 mi North 4.6 mph - 0.04 in Snow Snow
5:45 PM 33.8 °F 29.6 °F 30.2 °F 87% 29.60 in 3.0 mi North 4.6 mph - 0.04 in Snow Light Snow
5:55 PM 33.1 °F 30.0 °F 30.0 °F 89% 29.67 in 8.0 mi North 3.5 mph - 0.04 in Snow Light Snow
6:41 PM 33.8 °F 29.6 °F 28.4 °F 81% 29.61 in 10.0 mi North 4.6 mph - 0.01 in   Overcast
6:52 PM 33.8 °F 30.8 °F 30.2 °F 87% 29.61 in 10.0 mi NNW 3.5 mph - 0.01 in   Overcast
6:55 PM 33.1 °F 30.0 °F 30.0 °F 89% 29.66 in 10.0 mi North 3.5 mph - 0.01 in   Overcast
7:11 PM 33.8 °F 29.6 °F 30.2 °F 87% 29.62 in 10.0 mi NNW 4.6 mph - N/A   Overcast
7:51 PM 33.8 °F 28.6 °F 30.2 °F 87% 29.62 in 9.0 mi NW 5.8 mph - N/A   Overcast
7:55 PM 34.0 °F 28.8 °F 30.0 °F 85% 29.68 in 9.0 mi NW 5.8 mph - N/A   Overcast
8:18 PM 33.8 °F 28.6 °F 30.2 °F 87% 29.62 in 10.0 mi NW 5.8 mph - N/A   Overcast
8:48 PM 33.8 °F 27.0 °F 30.2 °F 87% 29.63 in 10.0 mi NW 8.1 mph - N/A   Overcast
8:55 PM 34.0 °F 27.2 °F 30.0 °F 85% 29.69 in 10.0 mi NW 8.1 mph - N/A   Overcast
9:05 PM 33.8 °F 27.0 °F 30.2 °F 87% 29.63 in 10.0 mi NW 8.1 mph - N/A   Overcast
9:55 PM 34.0 °F 27.2 °F 30.0 °F 85% 29.70 in 10.0 mi NNW 8.1 mph - N/A   Overcast
10:55 PM 34.0 °F 26.6 °F 30.0 °F 85% 29.70 in 10.0 mi NNW 9.2 mph - N/A   Overcast
11:55 PM 35.1 °F 27.9 °F 30.9 °F 85% 29.72 in 10.0 mi NNW 9.2 mph - N/A   Overcast